• In Austria
  • List of Countries
  • For 7 days
  • Water Temperature
  • Satellite Maps
  • Weather Map
  • News
  • Weather Widgets
  • user-avatar
    Login

    Hourly Weather Kengtung

    Today, 19 November, Sunday

    Time Temperature Precipitation Wind Pressure Humidity
    00:00 +19°C° 0 mm 0 mps 700 mmHg 92%
    01:00 +19°C° 0 mm 0 mps 700 mmHg 93%
    02:00 +19°C° 0 mm 0 mps 700 mmHg 94%
    03:00 +18°C° 0 mm 0 mps 700 mmHg 94%
    04:00 +18°C° 0 mm 0 mps 700 mmHg 95%
    05:00 +18°C° 0 mm 0 mps 700 mmHg 95%
    06:00 +18°C° 0 mm 0 mps 700 mmHg 95%
    07:00 +19°C° 0 mm 0 mps 701 mmHg 94%
    08:00 +22°C° 0 mm 0 mps 701 mmHg 82%
    09:00 +25°C° 0 mm 0 mps 702 mmHg 70%
    10:00 +28°C° 0 mm 0 mps 702 mmHg 59%
    11:00 +29°C° 0 mm 0 mps 702 mmHg 54%
    12:00 +30°C° 0 mm 0 mps 701 mmHg 49%
    13:00 +33°C° 0 mm 1 mps 701 mmHg 44%
    14:00 +33°C° 0 mm 1 mps 700 mmHg 46%
    15:00 +32°C° 0 mm 1 mps 700 mmHg 49%
    16:00 +32°C° 0 mm 1 mps 699 mmHg 51%
    17:00 +29°C° 0 mm 1 mps 699 mmHg 61%
    18:00 +25°C° 0 mm 0 mps 699 mmHg 70%
    19:00 +22°C° 0 mm 0 mps 700 mmHg 79%
    20:00 +22°C° 0 mm 0 mps 700 mmHg 81%
    21:00 +21°C° 0 mm 0 mps 701 mmHg 83%
    22:00 +21°C° 0 mm 0 mps 701 mmHg 86%
    23:00 +20°C° 0 mm 0 mps 701 mmHg 87%

    Tomorrow, 20 November, Monday

    Time Temperature Precipitation Wind Pressure Humidity
    00:00 +20°C° 0 mm 0 mps 701 mmHg 89%
    01:00 +20°C° 0 mm 0 mps 701 mmHg 90%
    02:00 +19°C° 0 mm 0 mps 701 mmHg 91%
    03:00 +19°C° 0 mm 0 mps 701 mmHg 92%
    04:00 +19°C° 0 mm 0 mps 700 mmHg 93%
    05:00 +19°C° 0 mm 0 mps 701 mmHg 93%
    06:00 +19°C° 0 mm 0 mps 701 mmHg 94%
    07:00 +18°C° 0 mm 0 mps 701 mmHg 94%
    08:00 +22°C° 0 mm 0 mps 702 mmHg 83%
    09:00 +25°C° 0 mm 0 mps 703 mmHg 72%
    10:00 +28°C° 0 mm 0 mps 703 mmHg 61%
    11:00 +29°C° 0.2 mm 0 mps 703 mmHg 59%
    12:00 +30°C° 0.2 mm 0 mps 702 mmHg 56%
    13:00 +33°C° 0.2 mm 1 mps 701 mmHg 54%
    14:00 +32°C° 0.3 mm 1 mps 701 mmHg 56%
    15:00 +32°C° 0.3 mm 1 mps 700 mmHg 59%
    16:00 +31°C° 0.3 mm 1 mps 699 mmHg 61%
    17:00 +29°C° 0.2 mm 1 mps 699 mmHg 70%
    18:00 +24°C° 0.2 mm 0 mps 700 mmHg 80%
    19:00 +22°C° 0.2 mm 0 mps 700 mmHg 89%
    20:00 +21°C° 0 mm 0 mps 700 mmHg 90%
    21:00 +21°C° 0 mm 0 mps 701 mmHg 92%
    22:00 +21°C° 0 mm 0 mps 701 mmHg 93%
    23:00 +20°C° 0 mm 0 mps 701 mmHg 94%

    Day after tomorrow, 21 November, Tuesday

    Time Temperature Precipitation Wind Pressure Humidity
    00:00 +20°C° 0 mm 0 mps 701 mmHg 95%
    01:00 +20°C° 0 mm 0 mps 701 mmHg 96%
    02:00 +20°C° 0 mm 0 mps 700 mmHg 96%
    03:00 +20°C° 0 mm 0 mps 700 mmHg 96%
    04:00 +20°C° 0 mm 0 mps 700 mmHg 97%
    05:00 +20°C° 0 mm 0 mps 700 mmHg 96%
    06:00 +20°C° 0 mm 0 mps 700 mmHg 96%
    07:00 +20°C° 0 mm 0 mps 701 mmHg 96%
    08:00 +22°C° 0.2 mm 0 mps 701 mmHg 90%
    09:00 +24°C° 0.2 mm 0 mps 702 mmHg 85%
    10:00 +27°C° 0.2 mm 1 mps 703 mmHg 79%
    11:00 +28°C° 0.5 mm 1 mps 702 mmHg 75%
    12:00 +29°C° 0.5 mm 1 mps 701 mmHg 71%
    13:00 +30°C° 0.5 mm 1 mps 700 mmHg 67%
    14:00 +30°C° 0.6 mm 1 mps 700 mmHg 70%
    15:00 +29°C° 0.6 mm 1 mps 699 mmHg 74%
    16:00 +26°C° 0.6 mm 0 mps 698 mmHg 78%
    17:00 +25°C° 0.5 mm 0 mps 699 mmHg 83%
    18:00 +23°C° 0.5 mm 0 mps 699 mmHg 89%
    19:00 +21°C° 0.5 mm 0 mps 700 mmHg 95%
    20:00 +20°C° 0.1 mm 0 mps 700 mmHg 95%
    21:00 +20°C° 0.1 mm 0 mps 701 mmHg 96%
    22:00 +20°C° 0.1 mm 0 mps 701 mmHg 96%
    23:00 +19°C° 0 mm 0 mps 701 mmHg 96%

    22 November, Wednesday

    Time Temperature Precipitation Wind Pressure Humidity
    00:00 +19°C° 0 mm 0 mps 701 mmHg 97%
    01:00 +19°C° 0 mm 0 mps 700 mmHg 97%
    02:00 +19°C° 0 mm 0 mps 700 mmHg 97%
    03:00 +19°C° 0 mm 0 mps 700 mmHg 97%
    04:00 +18°C° 0 mm 0 mps 699 mmHg 98%
    05:00 +19°C° 0.1 mm 0 mps 700 mmHg 98%
    06:00 +19°C° 0.1 mm 0 mps 700 mmHg 98%
    07:00 +19°C° 0.1 mm 0 mps 700 mmHg 98%
    08:00 +21°C° 0.1 mm 0 mps 701 mmHg 91%
    09:00 +23°C° 0.1 mm 0 mps 702 mmHg 84%
    10:00 +25°C° 0.1 mm 0 mps 702 mmHg 77%
    11:00 +26°C° 0.2 mm 0 mps 702 mmHg 72%
    12:00 +27°C° 0.2 mm 0 mps 701 mmHg 67%
    13:00 +29°C° 0.2 mm 0 mps 700 mmHg 61%
    14:00 +28°C° 0.3 mm 0 mps 699 mmHg 64%
    15:00 +27°C° 0.3 mm 0 mps 699 mmHg 67%
    16:00 +27°C° 0.3 mm 0 mps 698 mmHg 70%
    17:00 +25°C° 0.3 mm 0 mps 699 mmHg 77%
    18:00 +23°C° 0.3 mm 0 mps 699 mmHg 84%
    19:00 +21°C° 0.3 mm 0 mps 699 mmHg 90%
    20:00 +21°C° 0.2 mm 0 mps 700 mmHg 92%
    21:00 +21°C° 0.2 mm 0 mps 700 mmHg 93%
    22:00 +20°C° 0.2 mm 0 mps 701 mmHg 94%
    23:00 +20°C° 0.2 mm 0 mps 700 mmHg 94%

    23 November, Thursday

    Time Temperature Precipitation Wind Pressure Humidity
    00:00 +20°C° 0.2 mm 0 mps 700 mmHg 95%
    01:00 +20°C° 0.2 mm 0 mps 700 mmHg 95%
    02:00 +19°C° 0.2 mm 0 mps 700 mmHg 96%
    03:00 +19°C° 0.2 mm 0 mps 700 mmHg 96%
    04:00 +19°C° 0.2 mm 0 mps 699 mmHg 96%
    05:00 +19°C° 0.1 mm 0 mps 700 mmHg 96%
    06:00 +19°C° 0.1 mm 0 mps 700 mmHg 96%
    07:00 +19°C° 0.1 mm 0 mps 701 mmHg 96%
    08:00 +21°C° 0.2 mm 0 mps 701 mmHg 92%
    09:00 +22°C° 0.2 mm 0 mps 702 mmHg 89%
    10:00 +23°C° 0.2 mm 0 mps 702 mmHg 85%
    11:00 +24°C° 0.7 mm 0 mps 702 mmHg 86%
    12:00 +24°C° 0.7 mm 0 mps 701 mmHg 86%
    13:00 +24°C° 0.7 mm 0 mps 700 mmHg 87%
    14:00 +24°C° 0.8 mm 0 mps 700 mmHg 88%
    15:00 +24°C° 0.8 mm 0 mps 699 mmHg 88%
    16:00 +24°C° 0.8 mm 0 mps 699 mmHg 89%
    17:00 +23°C° 0.7 mm 0 mps 699 mmHg 91%
    18:00 +22°C° 0.7 mm 0 mps 700 mmHg 93%
    19:00 +20°C° 0.7 mm 0 mps 700 mmHg 96%
    20:00 +20°C° 0.4 mm 0 mps 700 mmHg 96%
    21:00 +19°C° 0.4 mm 0 mps 701 mmHg 96%
    22:00 +19°C° 0.4 mm 0 mps 701 mmHg 97%
    23:00 +19°C° 0.1 mm 0 mps 701 mmHg 97%

    24 November, Friday

    Time Temperature Precipitation Wind Pressure Humidity
    00:00 +19°C° 0.1 mm 0 mps 701 mmHg 97%
    01:00 +18°C° 0.1 mm 0 mps 700 mmHg 97%
    02:00 +19°C° 0.4 mm 0 mps 700 mmHg 97%
    03:00 +19°C° 0.4 mm 0 mps 700 mmHg 97%
    04:00 +19°C° 0.4 mm 0 mps 700 mmHg 97%
    05:00 +19°C° 0.1 mm 0 mps 700 mmHg 97%
    06:00 +19°C° 0.1 mm 0 mps 701 mmHg 97%
    07:00 +19°C° 0.1 mm 0 mps 701 mmHg 97%
    08:00 +20°C° 0.2 mm 0 mps 701 mmHg 93%
    09:00 +22°C° 0.2 mm 0 mps 702 mmHg 89%
    10:00 +23°C° 0.2 mm 0 mps 702 mmHg 85%
    11:00 +23°C° 0.9 mm 0 mps 702 mmHg 88%
    12:00 +23°C° 0.9 mm 0 mps 701 mmHg 90%
    13:00 +25°C° 0.9 mm 1 mps 700 mmHg 92%
    14:00 +25°C° 1.1 mm 1 mps 700 mmHg 93%
    15:00 +25°C° 1.1 mm 1 mps 700 mmHg 94%
    16:00 +25°C° 1.1 mm 1 mps 699 mmHg 95%
    17:00 +22°C° 0.7 mm 0 mps 700 mmHg 95%
    18:00 +20°C° 0.7 mm 0 mps 700 mmHg 96%
    19:00 +19°C° 0.7 mm 0 mps 700 mmHg 97%
    20:00 +19°C° 0.2 mm 0 mps 701 mmHg 97%
    21:00 +19°C° 0.2 mm 0 mps 701 mmHg 98%
    22:00 +18°C° 0.2 mm 0 mps 701 mmHg 98%
    23:00 +19°C° 0.1 mm 0 mps 701 mmHg 98%
    Show more